Date String (YYYY-MM-DD hh:mm:ss) UTC,Instrument flags,absolute air pressure of the measurement (hPa),sample flow rate (lpm),inlet stack bypass flow (lpm),air temperature of the measurement (°C),ambient temperature measured by the external sensor (°C),aerosol sample conditioner tube jacket temperature (°C),OPC LED temperature (°C),internal box temperature (°C),relative humidity of the measurement (%),span deviation,mass concentration of particles derived from Lorenz-Mie calculation of OPC scattering (μg/m³),mass concentration of particles derived from Lorenz-Mie calculation of OPC scattering (μg/m³),mass concentration of particles derived from Lorenz-Mie calculation of OPC scattering (μg/m³)
DateTimeUTC,F1_M11,P_M11,Q1_M11,Q2_M11,T1_M11,T2_M11,T3_M11,T4_M11,T5_M11,U1_M11,ZSPAN_M11,X2_M11,X0_M11,X1_M11
2023-11-16 05:00:00,SystemResetWarning,0826.6,5.00,000.00,027.2,026.0,000.0,035.6,028.6,7.3,0000.0,0003.23,0008.71,0002.25
2023-11-16 05:01:00,SystemResetWarning,0826.6,5.00,000.00,027.2,026.0,000.0,035.6,028.5,7.5,0000.0,0003.23,0008.90,0002.26
2023-11-16 05:02:00,SystemResetWarning,0826.8,5.01,000.00,027.2,026.0,000.0,035.6,028.5,7.4,0000.0,0003.23,0009.43,0002.27
2023-11-16 05:03:00,SystemResetWarning,0826.8,5.00,000.00,027.2,026.0,000.0,035.6,028.5,7.4,0000.0,0003.22,0009.67,0002.27
2023-11-16 05:04:00,SystemResetWarning,0826.8,5.01,000.00,027.2,026.0,000.0,035.6,028.5,7.4,0000.0,0003.18,0010.32,0002.28
2023-11-16 05:05:00,SystemResetWarning,0826.8,5.00,000.00,027.2,026.0,000.0,035.6,028.5,7.3,0000.0,0003.19,0010.06,0002.28
2023-11-16 05:06:00,SystemResetWarning,0826.8,5.00,000.00,027.2,025.9,000.0,035.6,028.5,7.3,0000.0,0003.21,0009.57,0002.29
2023-11-16 05:07:00,SystemResetWarning,0826.8,4.99,000.00,027.2,025.9,000.0,035.6,028.5,7.3,0000.0,0003.19,0009.81,0002.26
2023-11-16 05:08:00,SystemResetWarning,0826.7,5.00,000.00,027.1,025.9,000.0,035.6,028.5,7.3,0000.0,0003.14,0010.83,0002.24
2023-11-16 05:09:00,SystemResetWarning,0826.7,5.00,000.00,027.1,025.9,000.0,035.6,028.5,7.3,0000.0,0003.12,0011.11,0002.24
2023-11-16 05:10:00,SystemResetWarning,0826.6,5.00,000.00,027.1,025.9,000.0,035.6,028.5,7.5,0000.0,0003.13,0011.13,0002.24
2023-11-16 05:11:00,SystemResetWarning,0826.6,5.00,000.00,027.1,025.9,000.0,035.6,028.5,7.4,0000.0,0003.13,0011.43,0002.26
2023-11-16 05:12:00,SystemResetWarning,0826.6,5.00,000.00,027.1,025.9,000.0,035.6,028.5,7.4,0000.0,0003.14,0011.11,0002.29
2023-11-16 05:13:00,SystemResetWarning,0826.6,5.00,000.00,027.1,025.9,000.0,035.6,028.5,7.4,0000.0,0003.14,0010.56,0002.32
2023-11-16 05:14:00,SystemResetWarning,0826.6,5.00,000.00,027.1,025.9,000.0,035.5,028.5,7.4,0000.0,0003.16,0010.49,0002.33
2023-11-16 05:15:00,SystemResetWarning,0826.6,5.01,000.00,027.1,025.8,000.0,035.5,028.5,7.4,0000.0,0003.20,0010.11,0002.35
2023-11-16 05:16:00,SystemResetWarning,0826.6,5.00,000.00,027.1,025.8,000.0,035.5,028.4,7.4,0000.0,0003.20,0009.17,0002.36
2023-11-16 05:17:00,SystemResetWarning,0826.6,5.00,000.00,027.1,025.8,000.0,035.5,028.4,7.4,0000.0,0003.16,0009.29,0002.39
2023-11-16 05:18:00,SystemResetWarning,0826.6,5.00,000.00,027.1,025.8,000.0,035.5,028.4,7.5,0000.0,0003.18,0009.34,0002.43
2023-11-16 05:19:00,SystemResetWarning,0826.6,5.00,000.00,027.1,025.8,000.0,035.5,028.4,7.5,0000.0,0003.19,0008.77,0002.46
2023-11-16 05:20:00,SystemResetWarning,0826.6,5.00,000.00,027.1,025.8,000.0,035.5,028.4,7.5,0000.0,0003.23,0008.72,0002.50
2023-11-16 05:21:00,SystemResetWarning,0826.6,5.00,000.00,027.1,025.8,000.0,035.5,028.4,7.5,0000.0,0003.24,0009.87,0002.53
2023-11-16 05:22:00,SystemResetWarning,0826.6,5.00,000.00,027.1,025.8,000.0,035.5,028.4,7.5,0000.0,0003.27,0009.77,0002.56
2023-11-16 05:23:00,SystemResetWarning,0826.4,5.00,000.00,027.0,025.8,000.0,035.5,028.4,7.5,0000.0,0003.35,0009.54,0002.58
2023-11-16 05:24:00,SystemResetWarning,0826.4,5.01,000.00,027.0,025.8,000.0,035.5,028.4,7.5,0000.0,0003.37,0009.72,0002.59
2023-11-16 05:25:00,SystemResetWarning,0826.4,5.00,000.00,027.0,025.8,000.0,035.5,028.4,7.4,0000.0,0003.38,0009.90,0002.60
2023-11-16 05:26:00,SystemResetWarning,0826.4,4.99,000.00,027.1,025.8,000.0,035.5,028.5,7.4,0000.0,0003.36,0009.89,0002.60
2023-11-16 05:27:00,SystemResetWarning,0826.4,4.99,000.00,027.1,025.9,000.0,035.5,028.5,7.4,0000.0,0003.38,0010.19,0002.61
2023-11-16 05:28:00,SystemResetWarning,0826.4,4.99,000.00,027.1,025.9,000.0,035.5,028.5,7.5,0000.0,0003.42,0010.21,0002.63
2023-11-16 05:29:00,SystemResetWarning,0826.5,5.00,000.00,027.1,025.9,000.0,035.5,028.5,7.5,0000.0,0003.44,0010.52,0002.65
2023-11-16 05:30:00,SystemResetWarning,0826.6,5.00,000.00,027.1,025.9,000.0,035.5,028.4,7.4,0000.0,0003.48,0010.20,0002.69
2023-11-16 05:31:00,SystemResetWarning,0826.6,5.00,000.00,027.1,025.9,000.0,035.5,028.4,7.5,0000.0,0003.49,0011.13,0002.71
2023-11-16 05:32:00,SystemResetWarning,0826.6,5.00,000.00,027.1,025.9,000.0,035.5,028.4,7.5,0000.0,0003.56,0010.74,0002.74
2023-11-16 05:33:00,SystemResetWarning,0826.6,5.00,000.00,027.0,025.8,000.0,035.5,028.4,7.5,0000.0,0003.64,0010.66,0002.80
2023-11-16 05:34:00,SystemResetWarning,0826.6,5.00,000.00,027.0,025.8,000.0,035.5,028.4,7.5,0000.0,0003.63,0010.72,0002.84
2023-11-16 05:35:00,SystemResetWarning,0826.6,5.00,000.00,027.0,025.8,000.0,035.4,028.4,7.5,0000.0,0003.60,0010.51,0002.86
2023-11-16 05:36:00,SystemResetWarning,0826.6,5.00,000.00,027.0,025.8,000.0,035.4,028.4,7.5,0000.0,0003.62,0010.74,0002.89
2023-11-16 05:37:00,SystemResetWarning,0826.4,5.00,000.00,027.0,025.8,000.0,035.4,028.4,7.5,0000.0,0003.66,0010.83,0002.92
2023-11-16 05:38:00,SystemResetWarning,0826.3,5.00,000.00,027.0,025.9,000.0,035.4,028.4,7.5,0000.0,0003.72,0010.74,0002.98
2023-11-16 05:39:00,SystemResetWarning,0826.4,5.00,000.00,027.0,025.9,000.0,035.4,028.5,7.6,0000.0,0003.75,0011.09,0003.00
2023-11-16 05:40:00,SystemResetWarning,0826.4,5.00,000.00,027.0,025.9,000.0,035.4,028.5,7.5,0000.0,0003.78,0011.11,0003.02
2023-11-16 05:41:00,SystemResetWarning,0826.4,4.99,000.00,027.0,025.9,000.0,035.4,028.5,7.6,0000.0,0003.78,0010.52,0003.02
2023-11-16 05:42:00,SystemResetWarning,0826.4,5.00,000.00,027.0,025.9,000.0,035.4,028.4,7.6,0000.0,0003.82,0010.14,0003.05
2023-11-16 05:43:00,SystemResetWarning,0826.3,4.99,000.00,027.0,025.9,000.0,035.4,028.4,7.7,0000.0,0003.85,0009.67,0003.09
2023-11-16 05:44:00,SystemResetWarning,0826.4,5.00,000.00,027.0,025.8,000.0,035.4,028.4,7.7,0000.0,0003.81,0009.83,0003.07
2023-11-16 05:45:00,SystemResetWarning,0826.4,5.00,000.00,027.0,025.8,000.0,035.4,028.4,7.7,0000.0,0003.79,0010.57,0003.04
2023-11-16 05:46:00,SystemResetWarning,0826.4,5.00,000.00,027.0,025.9,000.0,035.4,028.4,7.8,0000.0,0003.81,0010.82,0003.02
2023-11-16 05:47:00,SystemResetWarning,0826.4,5.00,000.00,027.0,025.9,000.0,035.4,028.4,7.8,0000.0,0003.86,0010.45,0003.05
2023-11-16 05:48:00,SystemResetWarning,0826.4,5.00,000.00,027.0,025.9,000.0,035.4,028.4,7.8,0000.0,0003.94,0011.42,0003.13
2023-11-16 05:49:00,SystemResetWarning,0826.3,5.00,000.00,027.0,025.9,000.0,035.4,028.4,7.6,0000.0,0004.02,0011.59,0003.22
2023-11-16 05:50:00,SystemResetWarning,0826.3,5.00,000.00,027.0,025.8,000.0,035.4,028.3,7.7,0000.0,0004.10,0011.20,0003.32
2023-11-16 05:51:00,SystemResetWarning,0826.2,5.00,000.00,027.0,025.8,000.0,035.4,028.3,7.8,0000.0,0004.21,0011.76,0003.44
2023-11-16 05:52:00,SystemResetWarning,0826.2,5.00,000.00,027.0,025.7,000.0,035.4,028.3,7.9,0000.0,0004.39,0012.16,0003.60
2023-11-16 05:53:00,SystemResetWarning,0826.2,5.00,000.00,027.0,025.7,000.0,035.4,028.4,8.0,0000.0,0004.58,0012.51,0003.75
2023-11-16 05:54:00,SystemResetWarning,0826.0,5.00,000.00,027.0,025.8,000.0,035.4,028.4,8.0,0000.0,0004.54,0012.94,0003.73
2023-11-16 05:55:00,SystemResetWarning,0826.0,5.00,000.00,027.0,025.8,000.0,035.4,028.4,8.0,0000.0,0004.50,0012.82,0003.71
2023-11-16 05:56:00,SystemResetWarning,0826.2,5.00,000.00,027.0,025.9,000.0,035.4,028.5,8.0,0000.0,0004.48,0011.98,0003.71
2023-11-16 05:57:00,SystemResetWarning,0826.4,5.00,000.00,027.0,025.9,000.0,035.4,028.4,7.9,0000.0,0004.50,0011.67,0003.75
2023-11-16 05:58:00,SystemResetWarning,0826.4,4.99,000.00,027.0,025.9,000.0,035.4,028.3,7.9,0000.0,0004.70,0011.85,0003.92
2023-11-16 05:59:00,SystemResetWarning,0826.3,5.00,000.00,027.0,025.9,000.0,035.4,028.3,7.9,0000.0,0004.91,0011.59,0004.11
